Location: Kellogg
(38.0159°N, 90.0546°W)
Time: 11:14:38
(UTC+00:00)

Explorer 11/Cluster Stage 4 - All Passes

Search period start: 07 September 2024 00:00
Search period end: 17 September 2024 00:00
Orbit: 464 x 1209 km, 28.8° (Epoch: 06 September)

Date Brightness Start Highest point End Pass type
(mag) Time Alt. Az. Time Alt. Az. Time Alt. Az.
07 Sep - 14:46:01 10° SSW 14:51:58 23° SSE 14:57:47 10° ESE daylight
07 Sep - 16:32:49 10° SW 16:39:57 37° S 16:46:27 10° ESE daylight
07 Sep - 18:21:05 10° WSW 18:27:58 38° S 18:33:56 10° ESE daylight
07 Sep - 20:10:18 10° WSW 20:15:34 23° SSW 20:20:07 10° SSE daylight
08 Sep - 14:26:40 10° SSW 14:32:45 25° SSE 14:38:47 10° ESE daylight
08 Sep - 16:13:31 10° WSW 16:20:45 39° S 16:27:29 10° ESE daylight
08 Sep - 18:01:47 10° WSW 18:08:50 39° S 18:15:01 10° ESE daylight
08 Sep - 19:51:01 10° WSW 19:56:29 24° SSW 20:01:15 10° SSE daylight
09 Sep - 14:07:22 10° SSW 14:13:31 26° SSE 14:19:44 10° ESE daylight
09 Sep - 15:54:13 10° WSW 16:01:32 40° S 16:08:27 10° ESE daylight
09 Sep - 17:42:28 10° WSW 17:49:39 39° S 17:56:04 10° ESE daylight
09 Sep - 19:31:44 10° WSW 19:37:21 24° SSW 19:42:18 10° SSE daylight
10 Sep - 13:48:06 10° SSW 13:54:16 27° SSE 14:00:37 10° ESE daylight
10 Sep - 15:34:58 10° WSW 15:42:16 41° S 15:49:22 10° ESE daylight
10 Sep - 17:23:11 10° WSW 17:30:26 39° S 17:37:03 10° ESE daylight
10 Sep - 19:12:27 10° WSW 19:18:10 24° SSW 19:23:19 10° SSE daylight
11 Sep - 11:46:34 10° SSE 11:47:36 10° SE 11:48:39 10° SE daylight
11 Sep - 13:28:52 10° SSW 13:35:00 27° SSE 13:41:26 10° ESE daylight
11 Sep - 15:15:44 10° WSW 15:23:00 41° S 15:30:14 10° ESE daylight
11 Sep - 17:03:54 10° WSW 17:11:11 39° S 17:17:59 10° ESE daylight
11 Sep - 18:53:10 10° WSW 18:58:58 23° SSW 19:04:14 10° SSE daylight
12 Sep - 11:26:55 10° SSE 11:28:23 11° SE 11:29:52 10° SE daylight
12 Sep - 13:09:41 10° SW 13:15:44 28° SSE 13:22:12 10° ESE daylight
12 Sep - 14:56:32 10° WSW 15:03:42 42° S 15:11:02 10° ESE daylight
12 Sep - 16:44:38 10° WSW 16:51:54 39° S 16:58:50 10° SE daylight
12 Sep - 18:33:54 10° WSW 18:39:43 23° SSW 18:45:07 10° SSE daylight
13 Sep - 11:07:31 10° SSE 11:09:10 11° SE 11:10:52 10° SE visible
13 Sep - 12:50:33 10° SW 12:56:28 28° SSE 13:02:55 10° ESE daylight
13 Sep - 14:37:22 10° WSW 14:44:24 42° S 14:51:47 10° ESE daylight
13 Sep - 16:25:24 10° WSW 16:32:36 39° S 16:39:38 10° SE daylight
13 Sep - 18:14:39 10° WSW 18:20:26 22° SSW 18:25:54 10° SSE daylight
14 Sep - 10:48:15 10° SSE 10:49:57 11° SSE 10:51:44 10° SE visible
14 Sep - 12:31:26 10° SW 12:37:11 29° SSE 12:43:35 10° ESE daylight
14 Sep - 14:18:13 10° WSW 14:25:06 42° S 14:32:29 10° ESE daylight
14 Sep - 16:06:12 10° WSW 16:13:17 38° S 16:20:23 10° SE daylight
14 Sep - 17:55:25 10° WSW 18:01:08 22° SSW 18:06:38 10° SSE daylight
15 Sep - 10:29:03 10° SSE 10:30:45 11° SSE 10:32:30 10° SE visible
15 Sep - 12:12:23 10° SW 12:17:56 29° SSE 12:24:13 10° ESE daylight
15 Sep - 13:59:06 10° WSW 14:05:47 41° S 14:13:08 10° ESE daylight
15 Sep - 15:47:01 10° WSW 15:53:57 37° SSW 16:01:04 10° SE daylight
15 Sep - 17:36:14 10° WSW 17:41:49 21° SSW 17:47:16 10° SSE daylight
16 Sep - 10:09:57 10° SSE 10:11:33 11° SSE 10:13:14 10° SE visible
16 Sep - 11:53:20 10° SW 11:58:41 29° SSE 12:04:49 10° ESE daylight
16 Sep - 13:40:02 10° WSW 13:46:30 41° S 13:53:44 10° ESE daylight
16 Sep - 15:27:51 10° WSW 15:34:36 36° SSW 15:41:42 10° SE daylight
16 Sep - 17:17:05 10° WSW 17:22:29 20° SSW 17:27:51 10° SSE daylight
